Temp
18 18 18 19 20 20 20 20 20 20 20 20 20 20 19 19 19 18 18 18 18 17 17 18 18 17 17 17 17 16 16 17 16 16 16 16 17 16 16 16 16 16 16
18 19 18 19 19 19 19 19 19 19 19 19 19 19 19 19 19 18 18 18 18 18 17 17 17 17 17 17 17 17 17 16 16 16 16 16 16 16 16 16 16 16 16
16 17 18 18 19 19 19 19 19 19 19 19 19 19 19 19 18 18 18 18 18 18 18 17 17 17 17 17 17 17 17 17 16 15 15 15 16 16 16 16 16 16 16
17 17 18 18 18 18 18 18 18 18 18 18 18 18 18 18 18 18 18 17 17 17 17 17 17 17 17 17 17 16 17 17 16 16 15 15 15 15 16 16 16 16 16
18 18 17 17 17 18 18 18 18 18 18 18 18 18 18 18 18 18 18 18 17 17 17 17 17 17 17 16 17 16 17 17 16 16 15 15 15 15 15 15 16 16 16
16 17 17 17 18 18 17 17 17 17 18 17 17 17 17 17 17 17 17 17 17 17 17 17 17 17 17 17 16 16 16 16 17 16 15 15 16 15 15 15 15 15 15
17 17 17 17 17 17 17 18 18 18 18 17 17 17 16 16 16 17 17 16 16 17 17 16 17 17 16 16 17 16 16 16 16 16 15 15 15 15 14 15 15 15 15
17 17 17 17 17 18 18 18 18 17 17 16 16 16 16 16 16 16 16 16 16 16 16 16 16 16 16 15 16 16 16 16 16 16 15 15 15 15 15 15 16 15 15
16 16 16 16 16 17 17 17 17 17 17 16 15 15 15 16 15 15 15 15 15 16 15 15 15 15 15 15 15 15 15 15 15 16 16 15 16 16 16 15 15 15 15
16 16 16 16 16 16 16 16 16 16 16 15 15 15 15 16 15 15 15 15 15 15 15 15 15 15 15 15 15 15 15 15 15 15 16 16 16 16 16 15 15 14 15
16 16 15 15 15 15 15 15 15 15 15 15 15 15 15 15 15 15 15 15 15 15 15 14 14 14 14 14 14 15 15 15 15 15 15 16 15 16 15 15 15 14 14
16 15 15 15 15 14 15 15 15 15 15 15 15 15 15 15 15 15 15 15 15 15 14 14 14 14 14 14 14 14 14 15 14 15 15 15 16 15 15 15 15 14 14
14 14 14 14 14 14 14 14 14 14 14 14 14 14 14 15 15 15 15 15 15 15 15 15 14 14 13 13 13 14 14 14 14 14 15 15 14 15 15 14 14 14 14
13 13 13 13 13 14 14 14 14 14 13 13 14 13 14 14 14 14 14 15 14 15 15 14 14 14 13 13 13 13 13 14 14 14 15 14 14 14 14 14 14 14 14
12 12 12 12 13 13 13 13 13 13 13 12 12 12 13 13 13 14 14 14 13 13 13 14 14 13 13 13 13 13 12 13 13 13 14 14 14 15 15 14 13 14 13
12 12 12 12 12 12 12 12 12 12 12 11 11 11 11 12 12 12 12 12 12 13 13 12 13 13 13 12 13 12 13 12 13 13 13 14 13 15 16 14 13 12 13
12 12 12 11 11 11 11 11 11 11 10 10 10 9 9 9 9 9 10 10 11 11 11 11 11 11 11 12 12 12 12 12 11 12 12 12 13 14 15 14 15 14 14
11 11 11 11 11 11 11 10 10 10 10 10 9 8 8 7 6 6 6 6 7 8 8 8 9 9 9 10 11 12 12 11 12 11 12 12 13 12 14 14 14 14 13
10 10 10 10 10 10 10 10 10 9 9 9 8 8 7 7 6 5 5 4 4 4 4 5 6 6 7 8 8 9 11 11 11 11 11 12 13 12 12 13 13 13 13
10 10 10 10 10 10 10 9 9 9 9 8 7 6 6 6 5 5 4 3 2 2 2 2 2 3 4 5 6 7 9 11 10 10 11 12 12 12 12 12 13 13 13
9 9 10 10 10 9 10 10 9 8 7 7 6 6 5 5 5 4 3 1 -1 -2 -2 -3 -2 -0 3 2 3 5 7 9 11 11 11 11 12 13 13 12 12 12 13
9 9 9 9 8 8 8 8 7 6 6 6 6 6 5 5 4 2 0 -2 -4 -4 -4 -5 -5 -5 -3 -2 -1 -0 4 7 8 11 11 11 12 13 13 13 13 13 13
8 8 7 8 8 7 7 6 6 6 6 6 6 5 4 2 1 -2 -3 -5 -5 -5 -5 -6 -5 -5 -4 -3 -2 -1 2 5 5 9 10 11 12 12 12 12 12 12 13
8 6 6 6 6 6 7 6 6 5 5 4 4 3 2 2 -0 -3 -5 -5 -5 -6 -6 -6 -6 -5 -5 -4 -3 -2 -1 1 3 5 8 9 9 10 10 11 11 11 11
7 6 6 6 6 6 6 5 5 5 4 3 2 2 1 -0 -3 -4 -5 -6 -6 -6 -7 -6 -6 -5 -5 -5 -4 -3 -2 -1 0 2 4 7 7 8 9 9 10 10 11
7 6 5 5 5 5 5 5 4 4 3 3 2 1 -0 -1 -3 -4 -5 -6 -6 -6 -7 -7 -6 -5 -5 -4 -4 -3 -2 -2 0 2 3 5 5 7 7 8 8 10 10
Height
1541 1541 1544 1542 1542 1540 1539 1539 1539 1539 1540 1539 1539 1539 1539 1539 1539 1539 1539 1538 1538 1538 1539 1539 1540 1541 1541 1541 1541 1540 1540 1539 1538 1538 1538 1537 1536 1536 1536 1536 1538 1539 1540
1539 1540 1544 1545 1542 1539 1539 1540 1539 1539 1541 1539 1539 1539 1539 1539 1539 1539 1538 1538 1538 1538 1538 1538 1539 1539 1540 1540 1540 1540 1540 1539 1538 1538 1538 1538 1538 1538 1538 1538 1538 1539 1540
1546 1544 1542 1548 1543 1540 1539 1539 1539 1539 1540 1539 1539 1539 1539 1538 1538 1538 1538 1537 1537 1537 1538 1537 1537 1537 1539 1539 1539 1539 1540 1539 1538 1538 1538 1540 1540 1540 1540 1540 1539 1540 1540
1548 1544 1544 1548 1543 1540 1538 1539 1538 1539 1539 1538 1539 1539 1538 1538 1538 1537 1537 1536 1536 1536 1536 1536 1536 1536 1536 1538 1538 1538 1538 1538 1537 1538 1538 1539 1541 1540 1540 1540 1540 1541 1541
1545 1545 1547 1545 1541 1539 1539 1538 1539 1538 1538 1538 1537 1537 1536 1536 1537 1537 1536 1536 1535 1535 1534 1534 1534 1534 1536 1536 1536 1537 1537 1537 1536 1537 1537 1538 1539 1540 1541 1541 1540 1541 1541
1543 1543 1543 1541 1539 1538 1537 1537 1537 1537 1536 1536 1535 1535 1536 1535 1535 1534 1535 1534 1534 1533 1533 1532 1532 1533 1534 1535 1536 1536 1536 1536 1535 1534 1536 1537 1539 1540 1540 1541 1542 1541 1541
1537 1540 1540 1539 1538 1537 1536 1536 1536 1536 1535 1534 1534 1534 1534 1534 1533 1532 1532 1532 1532 1531 1531 1531 1531 1532 1532 1533 1533 1533 1533 1534 1534 1532 1534 1535 1536 1537 1537 1538 1539 1540 1540
1536 1538 1538 1538 1537 1536 1535 1535 1534 1535 1534 1533 1533 1533 1533 1532 1531 1530 1530 1530 1529 1528 1528 1528 1528 1529 1530 1531 1530 1530 1531 1532 1532 1531 1531 1533 1535 1535 1536 1537 1537 1537 1539
1536 1536 1536 1536 1536 1535 1534 1534 1534 1534 1533 1533 1533 1532 1531 1530 1528 1528 1527 1527 1527 1525 1524 1524 1525 1526 1527 1527 1528 1528 1528 1529 1529 1529 1528 1529 1531 1532 1533 1534 1535 1535 1536
1536 1535 1535 1536 1536 1535 1535 1534 1533 1533 1532 1533 1532 1531 1530 1528 1527 1526 1525 1524 1523 1521 1521 1521 1521 1522 1523 1524 1523 1523 1524 1525 1526 1526 1526 1525 1527 1529 1531 1532 1532 1532 1534
1534 1534 1535 1535 1535 1535 1534 1534 1534 1533 1532 1532 1531 1529 1528 1526 1525 1524 1523 1522 1520 1518 1517 1515 1516 1517 1518 1519 1519 1519 1519 1520 1522 1522 1523 1523 1523 1525 1526 1528 1529 1529 1531
1534 1534 1534 1535 1535 1536 1535 1535 1534 1533 1531 1530 1529 1528 1527 1525 1523 1522 1521 1519 1517 1515 1513 1512 1511 1511 1512 1513 1513 1513 1513 1513 1515 1517 1517 1519 1519 1520 1521 1523 1524 1526 1528
1534 1534 1534 1535 1535 1536 1535 1534 1533 1531 1530 1529 1527 1525 1524 1523 1521 1520 1518 1516 1514 1512 1510 1508 1506 1506 1505 1505 1506 1507 1507 1508 1508 1511 1512 1513 1516 1517 1518 1519 1521 1523 1525
1534 1534 1534 1535 1535 1535 1534 1532 1531 1530 1529 1528 1525 1523 1521 1520 1517 1515 1513 1512 1510 1508 1506 1504 1501 1500 1500 1499 1499 1501 1501 1501 1502 1503 1505 1508 1509 1510 1512 1511 1515 1517 1519
1534 1534 1534 1535 1535 1534 1533 1532 1531 1529 1528 1526 1524 1520 1519 1516 1514 1512 1510 1507 1504 1502 1501 1499 1496 1494 1493 1493 1493 1493 1494 1494 1494 1495 1496 1497 1502 1502 1501 1503 1511 1508 1510
1534 1534 1534 1535 1534 1533 1532 1531 1529 1528 1526 1523 1521 1517 1515 1514 1511 1508 1506 1502 1499 1497 1495 1493 1490 1487 1486 1486 1486 1487 1487 1488 1487 1487 1487 1491 1493 1494 1491 1497 1492 1502 1506
1532 1532 1533 1533 1533 1532 1531 1529 1528 1526 1523 1521 1518 1514 1511 1508 1506 1503 1500 1498 1495 1492 1489 1486 1484 1482 1478 1477 1478 1478 1479 1481 1481 1482 1482 1483 1486 1487 1487 1484 1488 1488 1497
1531 1531 1531 1531 1531 1530 1529 1527 1525 1523 1520 1518 1514 1511 1507 1503 1500 1497 1493 1490 1488 1485 1482 1480 1476 1473 1471 1469 1468 1470 1470 1472 1474 1475 1476 1476 1479 1481 1483 1480 1483 1486 1491
1531 1531 1530 1530 1529 1528 1527 1526 1524 1521 1519 1515 1512 1508 1504 1500 1495 1491 1487 1483 1479 1476 1474 1472 1469 1466 1463 1462 1460 1460 1461 1463 1466 1467 1469 1470 1471 1473 1476 1477 1479 1484 1487
1528 1528 1529 1528 1527 1526 1525 1524 1522 1519 1516 1513 1509 1504 1500 1496 1491 1486 1480 1475 1470 1466 1464 1462 1461 1459 1456 1454 1451 1449 1451 1453 1456 1459 1461 1462 1463 1465 1468 1470 1474 1477 1479
1524 1525 1526 1526 1524 1524 1523 1521 1519 1515 1512 1509 1505 1501 1496 1491 1486 1480 1474 1469 1464 1460 1456 1454 1452 1450 1449 1447 1444 1442 1440 1442 1446 1448 1453 1456 1457 1459 1462 1464 1467 1470 1472
1524 1524 1524 1523 1522 1520 1519 1517 1515 1513 1509 1506 1503 1499 1494 1489 1483 1476 1469 1464 1459 1455 1452 1450 1447 1444 1442 1442 1441 1440 1435 1436 1436 1437 1442 1446 1451 1453 1454 1457 1458 1461 1463
1521 1521 1520 1521 1519 1518 1517 1515 1513 1510 1507 1504 1500 1495 1490 1485 1478 1471 1465 1460 1455 1451 1448 1445 1442 1440 1436 1437 1438 1440 1437 1433 1430 1432 1433 1436 1442 1445 1447 1449 1450 1451 1454
1519 1519 1518 1518 1516 1515 1514 1511 1509 1506 1503 1500 1497 1494 1490 1484 1476 1467 1462 1457 1451 1448 1445 1441 1439 1436 1434 1431 1432 1433 1433 1434 1433 1430 1428 1429 1433 1437 1441 1442 1443 1446 1448
1517 1517 1516 1516 1514 1512 1511 1509 1506 1504 1501 1498 1495 1491 1486 1479 1472 1464 1458 1454 1449 1445 1440 1437 1434 1431 1429 1427 1427 1427 1427 1427 1429 1431 1428 1425 1427 1431 1433 1436 1437 1440 1444
1515 1514 1515 1513 1512 1510 1508 1506 1504 1502 1499 1496 1492 1487 1482 1476 1468 1463 1457 1453 1448 1442 1438 1434 1431 1427 1424 1422 1421 1421 1421 1423 1424 1426 1427 1425 1422 1423 1429 1432 1434 1434 1436
Wind_Speed
6 7 7 8 9 9 9 8 7 6 6 6 5 6 6 5 3 2 2 2 2 1 1 3 3 3 2 2 2 4 5 6 4 2 0 3 4 7 9 10 10 11 12
10 10 7 8 9 9 8 6 5 5 4 4 3 2 2 2 2 1 1 1 2 2 2 3 4 4 3 2 3 5 5 5 4 1 3 4 7 9 11 12 11 11 12
17 12 11 7 7 6 5 4 4 3 2 2 1 1 2 2 2 2 2 3 3 4 5 5 6 5 5 4 3 4 5 4 3 2 4 5 7 9 9 10 11 11 12
19 13 10 8 6 5 4 2 2 2 2 2 2 3 3 5 6 6 5 5 5 6 7 8 8 8 7 6 5 4 3 2 4 4 7 7 9 10 9 8 10 11 12
16 13 11 7 5 4 3 3 3 3 3 3 3 4 5 6 8 9 10 10 9 8 9 10 11 10 9 8 7 6 5 3 5 6 9 10 10 12 11 9 11 11 12
13 11 9 6 6 5 5 4 4 4 5 5 5 6 8 9 9 10 11 12 13 12 12 12 13 12 11 10 9 8 7 5 7 8 12 10 8 10 10 12 11 11 12
9 9 9 7 5 6 6 5 4 5 5 5 5 5 7 9 10 11 11 12 14 15 16 16 15 15 13 12 12 11 10 8 9 11 12 14 13 14 16 16 14 13 13
8 8 7 6 5 4 3 3 4 6 6 6 5 5 6 8 9 10 12 14 15 16 18 18 19 18 17 16 14 14 13 11 10 13 14 14 14 14 16 17 17 15 16
8 6 5 4 4 4 5 7 8 7 6 6 5 5 7 8 8 10 12 14 17 19 20 20 21 20 20 19 18 17 15 14 13 14 17 16 14 17 19 18 18 17 18
7 6 5 4 4 5 5 6 6 6 5 5 6 6 7 8 9 10 12 14 16 18 20 21 21 22 22 22 21 21 19 17 16 16 18 19 19 15 21 19 17 20 21
6 6 5 4 4 4 3 4 5 6 6 6 6 6 6 6 6 7 9 11 13 16 19 20 21 23 23 24 24 24 22 22 19 18 18 19 23 18 23 22 20 20 23
7 7 6 5 5 6 5 5 6 7 8 9 10 10 9 9 9 10 10 10 12 14 16 18 19 19 21 26 26 26 27 26 23 21 20 19 23 25 18 23 20 21 22
7 6 7 7 7 5 5 6 6 8 9 10 13 15 15 15 15 15 15 15 16 16 17 18 18 17 16 21 23 27 30 29 28 24 19 21 20 22 22 22 24 22 23
5 8 8 8 7 8 8 8 9 10 12 13 15 18 19 20 20 20 21 21 21 21 22 22 22 20 19 19 20 23 27 30 29 28 24 19 19 21 23 24 28 26 23
6 8 9 9 8 9 9 11 12 13 16 17 18 20 21 22 24 25 26 26 26 25 25 27 27 27 26 22 21 20 18 20 27 29 28 25 24 27 27 28 29 27 23
7 7 8 8 9 11 13 15 17 18 19 20 21 23 24 25 27 29 29 30 31 31 30 29 30 31 32 29 27 24 22 16 19 27 24 31 32 38 40 45 29 29 25
5 5 5 7 9 10 13 15 17 20 21 23 25 25 27 27 28 30 31 32 33 33 34 34 33 32 34 32 30 32 27 22 16 18 28 31 31 31 34 33 23 28 22
3 3 5 6 8 10 12 15 18 21 23 25 26 27 29 30 31 31 33 34 34 35 35 35 36 37 34 33 33 30 33 28 22 18 22 30 31 35 35 37 26 42 33
2 2 4 6 8 10 13 16 18 21 23 25 26 28 29 31 34 35 36 37 38 38 36 37 36 37 38 37 34 32 32 33 28 26 22 25 28 32 37 40 41 42 42
1 2 4 6 8 9 11 13 17 20 23 24 25 27 28 31 33 36 37 37 37 37 37 34 34 36 37 38 38 37 33 34 33 29 26 26 24 27 32 39 39 40 39
2 2 4 7 8 10 12 17 20 23 23 23 25 27 30 32 35 37 36 33 32 31 31 29 30 30 31 32 34 36 37 35 37 37 33 28 27 25 25 34 44 45 42
3 5 6 8 9 12 15 19 20 20 21 23 24 26 29 31 33 33 32 31 29 29 28 26 27 26 25 22 19 22 20 17 21 33 36 36 32 30 28 26 30 36 40
5 6 7 9 10 12 15 17 18 19 21 22 25 28 29 32 32 30 28 28 27 24 24 23 22 19 21 20 13 12 7 5 11 10 18 28 31 31 27 27 28 28 32
6 5 7 9 11 13 16 19 21 22 22 23 25 26 27 31 31 28 27 26 24 21 21 20 19 19 18 20 20 20 23 18 6 9 12 11 10 14 16 16 19 20 21
7 7 9 9 11 14 17 18 19 19 20 22 23 24 26 29 29 28 27 27 23 19 19 18 20 18 17 20 21 18 22 23 22 17 21 26 18 9 5 8 9 12 12
12 9 9 10 10 13 16 17 18 19 20 22 22 24 26 31 33 32 29 26 23 21 20 18 15 14 16 17 19 22 20 17 15 12 13 22 27 29 18 12 4 9 9
Wind_Direction
98 119 123 134 138 135 131 131 122 117 113 103 96 84 79 88 94 74 62 27 43 36 289 270 272 285 304 334 357 356 350 354 356 357 27 183 169 160 151 146 146 147 146
210 175 155 159 154 143 137 131 124 118 122 125 129 125 98 80 80 41 335 297 299 289 271 271 273 283 304 327 342 337 348 350 335 313 202 192 188 177 163 156 154 158 155
207 174 169 175 155 144 135 124 110 94 76 66 65 228 248 278 297 298 302 294 289 289 287 277 275 272 279 288 305 324 337 334 301 225 193 208 193 194 177 165 162 165 162
170 167 169 176 159 141 125 106 78 50 24 6 335 304 272 263 264 266 279 286 289 289 286 279 274 277 270 267 276 293 308 296 274 213 193 194 207 199 203 191 177 174 170
159 164 165 160 143 121 95 59 30 14 6 343 316 302 287 274 269 266 265 273 280 282 283 282 279 280 284 271 268 282 288 266 249 228 211 195 208 209 208 211 193 187 181
138 143 142 141 116 97 79 60 36 13 6 353 335 312 294 282 271 266 263 267 270 275 277 278 280 282 283 279 275 275 278 260 245 237 225 215 212 227 226 211 216 202 194
120 130 133 122 112 103 84 65 35 20 9 1 348 320 297 287 277 274 269 264 267 270 272 276 276 278 278 275 270 265 264 254 243 245 233 228 231 252 244 218 215 223 207
111 109 107 107 90 63 37 17 359 2 353 357 349 329 306 296 290 283 276 271 268 268 272 276 276 278 280 278 270 262 261 256 244 243 247 228 231 250 245 226 220 220 218
118 113 96 80 51 20 359 351 349 348 353 339 328 324 316 305 293 282 277 274 271 268 268 269 275 276 276 276 277 271 264 256 246 237 247 239 235 224 225 231 225 223 224
116 106 91 62 48 24 10 0 356 351 353 346 344 338 321 315 311 297 288 277 275 270 270 270 269 272 272 273 272 272 269 262 252 243 235 248 233 236 224 227 229 227 230
96 90 84 75 62 60 50 30 11 2 351 344 339 337 331 330 318 311 303 294 287 282 276 272 270 266 267 269 271 270 270 266 259 251 245 237 243 240 229 231 232 230 233
86 88 87 79 66 54 45 31 13 7 352 341 332 331 327 322 317 310 305 300 292 285 283 283 277 270 269 268 266 267 267 268 264 256 250 242 237 244 241 236 230 232 232
69 76 77 69 60 50 39 27 4 358 351 340 329 327 326 319 313 307 300 295 290 286 285 283 282 276 270 268 266 263 263 260 261 260 252 246 239 239 238 243 234 231 235
78 79 73 64 50 39 28 11 5 354 351 344 336 327 323 320 315 310 307 304 300 294 287 284 281 279 276 273 272 269 268 264 264 257 246 244 232 235 237 249 232 230 234
78 73 67 56 45 31 17 13 3 355 350 347 338 327 322 315 311 309 306 302 300 296 292 285 282 278 278 273 273 270 269 270 259 259 250 227 237 238 238 243 233 231 231
74 67 61 46 32 23 17 10 3 355 349 340 333 325 319 316 312 309 306 302 299 297 294 289 284 279 276 276 273 274 271 267 271 251 247 237 239 237 237 244 250 227 229
90 69 51 38 26 17 9 5 359 354 347 341 337 331 327 323 319 314 309 304 300 298 295 291 288 283 280 275 268 268 270 267 267 262 253 247 238 245 248 242 260 245 217
117 89 50 31 17 9 6 3 358 352 345 340 335 333 332 329 325 320 314 308 301 297 294 291 290 287 283 279 274 261 261 265 255 252 256 255 245 238 241 242 244 232 231
119 55 28 13 3 4 2 358 351 345 341 340 336 334 331 328 324 321 314 308 302 299 294 290 287 286 285 283 279 269 256 255 254 248 244 251 251 249 233 238 244 234 234
138 344 349 345 338 342 344 345 344 342 342 342 340 339 339 336 333 328 321 315 310 305 301 295 286 282 283 283 281 276 265 254 250 243 244 243 251 246 239 238 237 234 235
197 288 305 305 308 324 333 339 343 346 346 344 342 340 338 338 336 332 326 320 316 312 309 306 302 295 284 282 284 278 273 264 252 247 240 239 241 239 250 244 237 234 237
247 288 294 297 318 338 346 348 347 344 340 341 338 336 334 334 334 332 327 321 318 316 314 312 308 301 293 292 291 289 299 286 269 253 246 242 244 249 249 252 250 248 248
244 281 297 311 321 337 348 348 341 335 334 335 338 339 341 339 340 340 334 327 324 319 317 315 315 312 296 285 280 259 288 261 298 252 240 242 247 253 255 254 257 258 255
250 279 303 317 323 338 345 343 342 340 339 339 338 339 342 344 347 346 340 337 331 323 320 317 311 300 295 286 279 268 251 263 293 292 244 201 220 240 254 258 258 259 263
246 272 294 308 321 335 341 342 339 336 336 336 338 342 346 352 357 356 348 345 341 334 328 319 314 306 290 280 269 271 264 262 253 259 272 262 257 239 205 230 261 251 264
232 258 282 304 317 329 332 337 334 334 337 339 341 344 349 356 6 2 355 351 352 349 345 336 335 329 313 287 267 256 257 257 246 244 257 259 267 265 259 232 272 247 271